Location: Poughquag
(41.6090°N, 73.6820°W)
Time: 16:34:31
(UTC-05:00)

N. Korean satellite - Pass Details

Date: 23 January 2020
Orbit: 456 x 505 km, 97.2° (Epoch: 24 February)

Event Time Altitude Azimuth Distance (km) Brightness Sun altitude
Rises 04:44:45 0° 32° (NNE) 2,533 10.6 -27.9°
Reaches altitude 10° 04:47:32 10° 57° (ENE) 1,660 9.9 -27.4°
Maximum altitude 04:49:38 15° 93° (E) 1,388 9.7 -27.0°
Drops below altitude 10° 04:51:44 10° 129° (SE) 1,668 9.9 -26.6°
Sets 04:54:33 0° 153° (SSE) 2,554 10.6 -26.1°
